sat.trackr.live / text

‹ back to catalog

STARLINK-5406

NORAD 54860 · 2022-177AS

PAYLOAD ACTIVE UNKNOWN

§ Identity

Operator
Country
US
Launch date
2022-12-28
Launch site
AFETR
Launch vehicle
Mass (kg)
RCS (m²)

Purposes: comms

External: N2YO · Heavens-Above · Gunter

§ Orbital elements

Epoch: 2026-05-25T02:19:06.004128Z

Period
94.27 min
Inclination
43.0019°
Eccentricity
0.0000901
Mean motion
15.27575224 rev/d
Perigee alt
482.4 km
Apogee alt
483.7 km
Semi-major
6,861.2 km
B*
1.5626e-5
RAAN
50.2768°
Arg perigee
255.2933°
Mean anomaly
104.7819°
Rev number
18,877

§ Raw data

STARLINK-54061 54860U 22177AS  26145.09659727  .00000168  00000+0  15626-4 0  99932 54860  43.0019  50.2768 0000901 255.2933 104.7819 15.27575224188770

JSON: /api/v1/satellites/54860 · /tle

For live sub-satellite position, see the globe view (requires WebGL).

§ Visibility from observer

Set your observer location to see the next 7 days of passes ≥ 10°. The values pass through the URL so the page stays shareable.

No JS? Fill the form by hand. The geolocation button needs JavaScript.